Location: *
(35.8942°N, 23.3025°E)
Time: 21:29:47
(UTC+00:00)

Cosmos 2278 Rocket - Pass Details

Date: 21 September 2021
Orbit: 840 x 847 km, 71.0° (Epoch: 22 October)

Event Time Altitude Azimuth Distance (km) Brightness Sun altitude
Rises 02:04:49 0° 340° (NNW) 3,413 5.4 -26.3°
Reaches altitude 10° 02:07:17 10° 343° (NNW) 2,474 4.7 -25.9°
Maximum altitude 02:12:57 71° 67° (ENE) 894 2.4 -24.8°
Drops below altitude 10° 02:18:35 10° 152° (SSE) 2,456 4.7 -23.7°
Sets 02:21:01 0° 154° (SSE) 3,387 5.4 -23.3°
